Flag for Russia Weather past 2 weeks in Yekaterinburg, Russia

Now
61 °F

Sunny.


Feels Like: 61 °F
Forecast: 31 / 45 °F
Wind: 22 mph from West

Location: Ekaterinburg


UV Index: 3 (Moderate)

Visibility: 10 mi


Pressure: 29.92 "Hg

Humidity: 29%

Dew point: 28 °F

Location of YekaterinburgLocation

Historic Weather in Yekaterinburg

°F

Yekaterinburg temperature yesterday

Maximum temperature yesterday: 55 °F (at 3:00 PM)
Minimum temperature yesterday: 30 °F (at 4:00 AM)
Average temperature yesterday: 44 °F

Past Weeks' High & Low Weather Summary

 TemperatureHumidityPressure
High63 °F (Apr 17, 4:00 PM)100% (Apr 6, 12:30 PM)30.36 "Hg (Apr 6, 12:30 PM)
Low12 °F (Apr 11, 7:00 AM)27% (Apr 15, 5:00 PM)29.45 "Hg (Apr 7, 6:00 PM)
Average37 °F65%30.00 "Hg
* Reported Apr 5 3:00 PM — Apr 20 3:30 PM, Yekaterinburg, Weather by CustomWeather, © 2014

Note: Actual official high and low records may vary slightly from our data, if they occured in-between our weather recording intervals... More about our weather records

Advertising

Historic Weather Conditions — Data for Previous 24 hours

 ConditionsComfort  
Time TempWeatherWind HumidityBarometerVisibility
3:30 PM
Apr 20
59 °FSunny.20 mph34%29.95 "Hg10 mi
3:00 PM59 °FSunny.22 mph34%29.98 "Hg10 mi
2:30 PM59 °FSunny.20 mph34%29.98 "Hg10 mi
2:00 PM57 °FSunny.20 mph36%30.01 "Hg10 mi
1:30 PM59 °FSunny.20 mph34%30.01 "Hg10 mi
1:00 PM57 °FSunny.17 mph36%30.01 "Hg10 mi
12:30 PM57 °FSunny.15 mph36%30.01 "Hg10 mi
12:00 PM55 °FSunny.20 mph41%30.04 "Hg10 mi
11:30 AM54 °FSunny.15 mph44%30.04 "Hg10 mi
11:00 AM52 °FSunny.13 mph47%30.04 "Hg10 mi
10:30 AM50 °FSunny.13 mph47%30.07 "Hg10 mi
10:00 AM48 °FSunny.10 mph50%30.07 "Hg10 mi
9:30 AM46 °FSunny.10 mph53%30.07 "Hg10 mi
9:00 AM45 °FSunny.10 mph57%30.07 "Hg10 mi
8:30 AM43 °FSunny.8 mph61%30.07 "Hg10 mi
8:00 AM41 °FSunny.6 mph66%30.07 "Hg10 mi
7:30 AM37 °FClear.6 mph70%30.07 "Hg10 mi
7:00 AM37 °FClear.8 mph70%30.07 "Hg10 mi
6:30 AM39 °FClear.8 mph65%30.07 "Hg10 mi
6:00 AM37 °FClear.8 mph70%30.07 "Hg10 mi
5:30 AM39 °FClear.8 mph65%30.07 "Hg10 mi
5:00 AM37 °FClear.8 mph70%30.07 "Hg10 mi
4:30 AM39 °FClear.6 mph65%30.07 "Hg10 mi
4:00 AM41 °FClear.8 mph61%30.07 "Hg10 mi
3:30 AM41 °FClear.6 mph61%30.07 "Hg10 mi
3:00 AM41 °FClear.6 mph57%30.07 "Hg10 mi
2:30 AM43 °FClear.8 mph57%30.07 "Hg10 mi
2:00 AM41 °FClear.8 mph61%30.09 "Hg10 mi
1:30 AM41 °FClear.8 mph61%30.09 "Hg10 mi
1:00 AM43 °FClear.8 mph57%30.09 "Hg10 mi
12:30 AM43 °FClear.8 mph53%30.09 "Hg10 mi
12:00 AM43 °FClear.8 mph57%30.09 "Hg10 mi
11:30 PM
Apr 19
43 °FClear.8 mph53%30.09 "Hg10 mi
11:00 PM45 °FClear.8 mph49%30.09 "Hg10 mi
10:30 PM45 °FClear.10 mph49%30.09 "Hg10 mi
10:00 PM46 °FSunny.10 mph46%30.09 "Hg10 mi
9:30 PM48 °FSunny.10 mph43%30.09 "Hg10 mi
9:00 PM50 °FSunny.13 mph40%30.09 "Hg10 mi
8:30 PM52 °FSunny.13 mph38%30.07 "Hg10 mi
8:00 PM54 °FSunny.15 mph33%30.07 "Hg10 mi
7:30 PM54 °FSunny.15 mph33%30.09 "Hg10 mi
7:00 PM55 °FSunny.17 mph31%30.09 "Hg10 mi
6:30 PM55 °FSunny.15 mph31%30.09 "Hg10 mi
6:00 PM55 °FSunny.17 mph31%30.09 "Hg10 mi
5:30 PM55 °FSunny.17 mph31%30.09 "Hg10 mi
5:00 PM55 °FSunny.17 mph31%30.12 "Hg10 mi
Weather by CustomWeather, © 2014

See weather overview